Regional Weather Roundup
Issued by NWS

Home | Current Version | Previous Version | Text Only | Print | Product List | Glossary Off
Versions: 1 2 3 4 5 6 7 8 9 10 11 12 13 14 15 16 17 18 19 20 21 22 23 24 25 26 27 28 29 30 31 32 33 34 35 36 37 38 39 40 41 42 43 44 45 46 47 48 49 50

000
ASUS43 KLOT 271100
RWRIL

ILLINOIS REGIONAL WEATHER ROUNDUP
NATIONAL WEATHER SERVICE CHICAGO/ROMEOVILLE IL
600 AM CDT WED AUG 27 2014

NOTE: "FAIR" INDICATES FEW OR NO CLOUDS BELOW 12,000 FEET WITH NO
SIGNIFICANT WEATHER AND/OR OBSTRUCTIONS TO VISIBILITY.

* THESE STATIONS ARE NOT UNDER NWS QUALITY CONTROL. THEY ALSO MAY NOT
  REPORT WEATHER SUCH AS PRECIPITATION OR FOG.

ILZ001-002-007-009-015-016-024-271200-
NORTHWEST ILLINOIS

CITY           SKY/WX    TMP DP  RH WIND       PRES   REMARKS
MOLINE         PTCLDY    69  63  81 NE7       30.12S
STERLING*      MOCLDY    66  61  82 NE8       30.15R
$$

ILZ003-004-008-010-011-017-018-271200-
NORTH CENTRAL ILLINOIS

CITY           SKY/WX    TMP DP  RH WIND       PRES   REMARKS
ROCKFORD       MOCLDY    65  57  75 N7        30.17R
FREEPORT*      PTCLDY    61  59  94 CALM      30.19R
ROCHELLE*      MOCLDY    64  61  89 N3        30.16R
$$

ILZ005-006-012>014-019>023-271200-
NORTHEAST ILLINOIS

CITY           SKY/WX    TMP DP  RH WIND       PRES   REMARKS
CHICAGO-OHARE  MOCLDY    68  62  81 N5        30.12F
CHICAGO-MIDWAY MOCLDY    72  64  76 E6        30.12S
AURORA         MOCLDY    66  62  87 CALM      30.13S
WAUKEGAN       MOCLDY    64  60  87 NW3       30.13R
DUPAGE AIRPORT MOCLDY    65  62  90 N6        30.13R
WHEELING       PTCLDY    66  63  90 N5        30.14S
NORTHERLY ISL    N/A     70  62  76 NE6         N/A
$$

LMZ740>746-271200-
SOUTHERN LAKE MICHIGAN

STATION/POSITION SKY/WX   TEMP    WIND        PRES    VSBY  WAVE
                          AIR SEA DIR/SP/G                  HT/PER
                          (F)     (DEG/KT/KT) (MB)    (MI)  (FT/S)
SOUTHERN BUOY              68 69   40/  2/  4 1019.8S         0
WAUKEGAN HARBOR            67     340/  5/  6   N/A
HARRISON CRIB              70      40/  6/  7   N/A
BURNHAM HARBOR             70      60/  6/  9   N/A
CALUMET HARBOR             71      50/  5/  6 1018.6S
MICHIGAN CITY              68      60/  5/  6   N/A
MICHIGAN CITY 6N           70 73   80/  6/  8   N/A           1/ 4
ST. JOSEPH                 69 74   40/  6/  6   N/A           1
$$

ILZ025>027-034>036-040-047-049-050-058-095>099-271200-
WEST-CENTRAL ILLINOIS

CITY           SKY/WX    TMP DP  RH WIND       PRES   REMARKS
QUINCY         CLEAR     70  68  93 NE7       30.08S
MACOMB*        PTCLDY    68  67  95 NE6       30.12S
$$

ILZ028>032-037-038-041>044-048-051>054-059>061-271200-
CENTRAL ILLINOIS

CITY           SKY/WX    TMP DP  RH WIND       PRES   REMARKS
DECATUR        PTCLDY    68  65  90 S5        30.09F
PEORIA         MOCLDY    73  65  75 NE8       30.10S
SPRINGFIELD    PTCLDY    70  66  87 SE3       30.08F
TAYLORVILLE    NOT AVBL
$$

ILZ033-039-045-046-055>057-062-063-271200-
EAST-CENTRAL ILLINOIS

CITY           SKY/WX    TMP DP  RH WIND       PRES   REMARKS
CHAMPAIGN      PTCLDY    68  66  93 CALM      30.10R
MATTOON        PTCLDY    69  66  90 CALM      30.09F
$$

ILZ079-100>102-271200-
SOUTHWEST ILLINOIS

CITY           SKY/WX    TMP DP  RH WIND       PRES   REMARKS
BELLEVILLE     CLEAR     71  70  99 CALM      30.06R
$$

ILZ064>066-069>071-074>076-080>082-084>086-088>090-092>094-271200-
SOUTH-CENTRAL ILLINOIS

CITY           SKY/WX    TMP DP  RH WIND       PRES   REMARKS
CARBONDALE     FOG       71  69  93 CALM      30.07R VSB 1/4
MT. VERNON     CLEAR     72  68  88 NE5       30.09S
SALEM*         CLEAR     73  70  92 CALM      30.09S
$$

ILZ067-068-072-073-078-083-087-091-271200-
SOUTHEAST ILLINOIS

CITY           SKY/WX    TMP DP  RH WIND       PRES   REMARKS
LAWRENCEVILLE  PTCLDY    71  70  96 CALM      30.09R
HARRISBURG*    CLEAR     71  71 100 CALM      30.09R FOG
ROBINSON*      PTCLDY    69  69  98 CALM      30.10R FOG
$$

ABBREVIATIONS USED IN REMARKS
   TC - TEMPERATURE IN CELSIUS
  WCI - WIND CHILL INDEX
   HX - HEAT INDEX
  VSB - VISIBILITY
$$



USA.gov is the U.S. government's official web portal to all federal, state and local government web resources and services.